Location: *
(43.9900°N, 3.4811°E)
Time: 16:18:57
(UTC+00:00)

Cosmos 1733 Rocket - Pass Details

Date: 25 August 2019
Orbit: 604 x 628 km, 82.5° (Epoch: 15 September)

Event Time Altitude Azimuth Distance (km) Brightness Sun altitude
Rises 19:13:07 0° 172° (S) 2,845 6.2 -7.3°
Reaches altitude 10° 19:15:22 10° 167° (SSE) 1,945 5.3 -7.7°
Maximum altitude 19:19:30 47° 93° (E) 804 3.3 -8.4°
Drops below altitude 10° 19:23:40 10° 20° (NNE) 1,962 5.7 -9.1°
Sets 19:25:56 0° 15° (NNE) 2,873 6.6 -9.5°
